Regional Weather Roundup
Issued by NWS

Home | Current Version | Previous Version | Graphics & Text | Print | Product List | Glossary On
Versions: 1 2 3 4 5 6 7 8 9 10 11 12 13 14 15 16 17 18 19 20 21 22 23 24 25 26 27 28 29 30 31 32 33 34 35 36 37 38 39 40 41 42 43 44 45 46 47 48 49 50
884
ASUS43 KTOP 220859
RWRKS

WEATHER ROUNDUP FOR KANSAS
NATIONAL WEATHER SERVICE GOODLAND KS
400 AM CDT FRI MAY 22 2015

NOTE:  "FAIR" INDICATES FEW OR NO CLOUDS BELOW 12,000 FEET WITH NO
SIGNIFICANT WEATHER AND/OR OBSTRUCTIONS TO VISIBILITY.

KSZ001>006-013>018-027>032-041>047-221000-
NORTHWEST KANSAS

CITY           SKY/WX    TMP DP  RH WIND       PRES   REMARKS
GOODLAND       LGT RAIN  48  46  93 SE14      30.12F
HAYS           CLOUDY    50  43  76 SE3       30.20F
HILL CITY      CLOUDY    50  44  80 SE6       30.19F
RUSSELL        CLOUDY    51  47  86 SE7       30.20R
$$

KSZ061>065-074>080-084>089-221000-
SOUTHWEST KANSAS

CITY           SKY/WX    TMP DP  RH WIND       PRES   REMARKS
DODGE CITY     HVY RAIN  50  47  89 SE10      30.16F FOG
ELKHART          N/A     49  44  83 SE17        N/A
GARDEN CITY    RAIN      48  48 100 S9        30.15F FOG
GREAT BEND     CLOUDY    52  45  76 SE7       30.20F
LIBERAL        CLOUDY    52  46  82 SE13      30.18F
$$

KSZ066>073-081>083-090>101-221000-
SOUTHEAST KANSAS

CITY           SKY/WX    TMP DP  RH WIND       PRES   REMARKS
CHANUTE        CLEAR     45  44  97 CALM      30.22R
COFFEYVILLE    CLEAR     46  45  96 NE5       30.20F
HUTCHINSON     CLOUDY    51  47  86 CALM      30.22R
NEWTON         CLOUDY    48  43  81 S3        30.23R
PARSONS        CLEAR     47  46  97 CALM      30.22S
WICHITA INTL   CLOUDY    53  47  79 CALM      30.20S
WICHITA JABRA  MOCLDY    50  47  89 CALM      30.20S
WINFIELD       MOCLDY    49  47  93 CALM      30.21R
$$

KSZ007>012-019>026-033>040-048>060-102>105-221000-
NORTHEAST KANSAS

CITY           SKY/WX    TMP DP  RH WIND       PRES   REMARKS
CONCORDIA      CLOUDY    47  43  86 S5        30.21S
EMPORIA        PTCLDY    45  43  93 CALM      30.22R
LAWRENCE       CLEAR     46  44  93 CALM      30.21F
MANHATTAN      PTCLDY    46  45  96 CALM      30.22R
OLATHE IND     CLEAR     48  45  89 CALM      30.21F
OLATHE EXE     CLEAR     49  46  90 CALM      30.20F
SALINA         CLOUDY    51  44  77 CALM      30.21F
TOPEKA BILLARD CLEAR     48  46  93 CALM      30.21S FOG
TOPEKA FORBES  CLEAR     47  43  86 CALM      30.20F
$$



USA.gov is the U.S. government's official web portal to all federal, state and local government web resources and services.